Hourly Data Report for November 01, 1996

OTTAWA MACDONALD-CARTIER INT'L A
ONTARIO

45°19'21.000" N
75°40'09.000" W
114.00 m
6106000
71628
YOW

Download Data

Hourly Data (November 1996)
Hourly Data Report for November 1, 1996
TIME
LST
Temp Definition
°C
Dew Point Definition
°C
Rel Hum Definition
%
Precip. Amount Definition
mm

Wind Dir Definition
10's deg

Wind Spd Definition
km/h
Visibility Definition
km
Stn Press Definition
kPa
Hmdx Definition


Wind Chill Definition


Weather Definition


00:00 -0.5 -5.4 69   24 11 24.1 99.09   -4 Mainly Clear
01:00 -0.2 -5.2 69   22 11 24.1 99.09   -4 Mainly Clear
02:00 -0.6 -5.1 72   21 13 24.1 99.09   -5 Clear
03:00 -1.0 -5.5 71   21 9 24.1 99.09   -4 Clear
04:00 -1.1 -5.4 73   22 11 24.1 99.09   -5 Clear
05:00 -0.3 -5.5 68   22 13 24.1 99.05   -4 Clear
06:00 -0.4 -5.7 67   21 11 24.1 99.09   -4 Mainly Clear
07:00 -0.4 -5.9 66   23 13 32.2 99.09   -5 Mainly Clear
08:00 0.2 -6.2 62   21 11 32.2 99.12     Mainly Clear
09:00 2.3 -5.3 57   22 22 40.2 99.09     Mostly Cloudy
10:00 2.9 -5.2 55   22 28 40.2 99.09     Mostly Cloudy
11:00 3.7 -5.0 53   23 26 40.2 99.09     Mostly Cloudy
12:00 4.3 -4.8 52   23 26 40.2 98.99     Mostly Cloudy
13:00 4.7 -5.1 49   22 19 40.2 98.99     Mostly Cloudy
14:00 4.5 -5.7 47   23 22 40.2 98.99     Cloudy
15:00 4.5 -5.9 47   23 22 40.2 98.95     Cloudy
16:00 4.7 -5.3 48   24 20 32.2 98.95     Mostly Cloudy
17:00 3.0 -5.6 53   23 15 32.2 98.95     Mainly Clear
18:00 1.6 -5.9 57   21 13 25.0 98.95     Mainly Clear
19:00 0.9 -5.6 62   21 11 24.1 99.02     Mainly Clear
20:00 1.4 -5.0 62   23 11 24.1 99.02     Mostly Cloudy
21:00 1.5 -5.1 61   23 13 24.1 99.02     Mostly Cloudy
22:00 1.1 -5.4 62   23 13 24.1 99.02     Mostly Cloudy
23:00 1.2 -5.3 62   23 15 24.1 99.02     Cloudy

Notes on Data Quality.

Legend

  • E = Estimated
  • M = Missing
  • NA = Not Available*
  • [empty] = Indicates an unobserved value
Date modified: